CZ-3C DEB, 39343

Orbit data source: Space-Track

CZ-3C DEB, 39343 is space debris in HEO originally from a launch on Sun, 31 Oct 2010 UTC launched from the Xichang Space Center, China (XSC). Debris objects in space refer to the collection of defunct objects orbiting the Earth. Examples of debris include non-operational satellites, rocket bodies, and fragments generated from explosions, collisions, or faulty payload assembly.

Loading next visibility...
Identifier
39343, 2010-057H
Orbit
HEO
Country
Flag of CNCN / PRC
Related business
Manufacturer
CALT
Mission
Spacecraft
Bus & Motor
Unknown
Mass
Unknown
Launch date (UTC)
2010-10-31 (15 years ago)
Launch vehicle
Unknown
Launch site
Xichang Space Center, China (XSC)
Object type
Payload
Rocket body
Debris
Shape & HBR
Unknown shape, 0.1 m
Radar Cross Section
Medium (>0.1 m² and <1 m²)

Expand to show TLE details & history
Last TLE update: 19 hours ago

TLE from 19 hours ago
0 CZ-3C DEB
1 39343U 10057H   25346.59637999  .00000928  00000-0  83085-2 0  9997
2 39343  21.3650  94.9041 7121292 104.1246 338.1216  2.32935232103537
Epoch: 2025-12-12T14:18Z
TLE epoch observation values (Epoch: 2025-12-12T14:18:47.231Z)
Latitude
Longitude
158.55564°
Altitude
8,001.332 km
Speed
6.233 km/s
True Right ascension
06h 19m 09s
True Declination
0° 00' 00"
Sunlit
Object was in daylight at epoch
Visualization orbit readout
Latitude
Unknown
Longitude
Unknown
Altitude
Unknown
Speed
Unknown
Apparent Right ascension
Unknown
Apparent Declination
Unknown
Sunlit
N/A
Visualization observer readout
Local Sidereal Time
07:35:01
Azimuth
Unknown
Elevation
Unknown
Doppler factor
Unknown
Orbital elements
Apogee altitude
34,786.58 km
Perigee altitude
543.14 km
Semi-major axis
24,042.997 km
Eccentricity
0.71213
Inclination
21.365°
RAAN
94.9041°
Arg. of periapsis
104.1246°
True anomaly
255.85458°
Mean anomaly
338.1216°
Eccentric anomaly
304.49263°
Mean motion
0.58218 °/min
Orbital period
618.36 mins
BSTAR
0.0083085
Loading maneuver chart data...
Computing Atmospheric mass density...
Loading historical data...
Loading historical data...
Loading historical data...
Loading historical data...
Loading historical data...
Loading historical data...
Loading historical data...

Documentation

Showing up to 5 results
|